COSMOS 2251 DEB, 35975

Orbit data source: Space-Track

COSMOS 2251 DEB, 35975 is space debris in LEO originally from a launch on Wed, 16 Jun 1993 UTC launched from the Plesetsk Missile And Space Complex (PKMTR). The debris from Iridium 33, an American commercial communications satellite, has been tracked extensively since its accidental collision with the defunct Russian satellite Cosmos 2251 in 2009. This event, occurring at high speed in low Earth orbit (LEO), generated thousands of pieces of space debris, significantly increasing the risk of further collisions. The Iridium 33 debris cloud has impacted space traffic management and orbital debris mitigation strategies, making it a subject of ongoing study in space situational awareness.

Loading next visibility...
Identifier
35975, 1993-036AVR
Orbit
LEO
Country
Flag of CISCIS
Related business
Manufacturer
Unknown
Mission
Spacecraft
Bus & Motor
Unknown
Mass
Unknown
Launch date (UTC)
1993-06-16 (33 years ago)
Launch vehicle
Unknown
Launch site
Plesetsk Missile And Space Complex (PKMTR)
Object type
Payload
Rocket body
Debris
Shape & HBR
Unknown shape, 0.1 m
Radar Cross Section
Small (<0.1 m²)

Expand to show TLE details & history
Last TLE update: 3 days ago

TLE from 3 days ago
0 COSMOS 2251 DEB
1 35975U 93036AVR 26175.73901986  .00001960  00000-0  74677-3 0  9994
2 35975  74.0504 338.6205 0112264  12.9220 347.4762 14.28090964668703
Epoch: 2026-06-24T17:44Z
TLE epoch observation values (Epoch: 2026-06-24T17:44:11.315Z)
Latitude
-0.00005°
Longitude
159.68143°
Altitude
722.105 km
Speed
7.535 km/s
True Right ascension
22h 34m 28s
True Declination
0° 00' 00"
Sunlit
Object was in daylight at epoch
Visualization orbit readout
Latitude
Unknown
Longitude
Unknown
Altitude
Unknown
Speed
Unknown
Apparent Right ascension
Unknown
Apparent Declination
Unknown
Sunlit
N/A
Visualization observer readout
Local Sidereal Time
00:28:11
Azimuth
Unknown
Elevation
Unknown
Doppler factor
Unknown
Orbital elements
Apogee altitude
876.287 km
Perigee altitude
715.213 km
Semi-major axis
7,173.887 km
Eccentricity
0.01123
Inclination
74.0504°
RAAN
338.6205°
Arg. of periapsis
12.922°
True anomaly
347.19337°
Mean anomaly
347.4762°
Eccentric anomaly
347.33517°
Mean motion
3.572 °/min
Orbital period
100.78 mins
BSTAR
0.00074677

Documentation

Showing up to 5 results
|